Regional Weather Roundup
Issued by NWS

Home | Current Version | Previous Version | Text Only | Print | Product List | Glossary On
Versions: 1 2 3 4 5 6 7 8 9 10 11 12 13 14 15 16 17 18 19 20 21 22 23 24 25 26 27
000
ASUS45 KTFX 191210
RWRMT
MONTANA REGIONAL WEATHER ROUNDUP
NATIONAL WEATHER SERVICE GREAT FALLS MT
600 AM MDT TUE SEP 19 2017

NOTE: "FAIR" INDICATES FEW OR NO CLOUDS BELOW 12000 FEET WITH NO
SIGNIFICANT WEATHER AND/OR OBSTRUCTIONS TO VISIBILITY.

MTZ001>007-043-191300-
WEST OF THE DIVIDE

CITY           SKY/WX    TMP DP  RH WIND       PRES   REMARKS
KALISPELL      LGT RAIN  42  40  92 S3        29.70S
MISSOULA       CLOUDY    39  32  76 N3        29.75R
BUTTE          CLOUDY    37  35  92 CALM      29.73R
MULLAN PASS    FOG       31  30  96 VRB5      29.70S VSB 3/4
ANACONDA         N/A     36  36 100 CALM      29.73S
DEER LODGE       N/A     36  36 100 CALM      29.75R
HAMILTON         N/A     41  37  87 CALM      29.75R
LIBBY            N/A     41  41 100 CALM      29.71S
PLAINS           N/A     37  33  85 CALM      29.75F
$$

MTZ008-052>055-191300-
SOUTHWEST MONTANA

CITY           SKY/WX    TMP DP  RH WIND       PRES   REMARKS
BOZEMAN        LGT RAIN  42  39  89 CALM      29.69R
DILLON         CLOUDY    37  33  85 SW8       29.72R WCI  31
W YELLOWSTONE  CLOUDY    34  34 100 SW5       29.72F
ENNIS          CLOUDY    37  36  93 SE10      29.76S FOG     WCI  30
THREE FORKS      N/A     43  40  89 SW6       29.72R
TWIN BRIDGES     N/A     40  34  79 CALM      29.75
$$

MTZ009-010-012-014-046-048-049-054-191300-
EAST SLOPES AND CENTRAL MONTANA

CITY           SKY/WX    TMP DP  RH WIND       PRES   REMARKS
CUT BANK       MOCLDY    38  32  79 W9        29.60R WCI  31
GREAT FALLS    CLOUDY    42  33  70 SW10      29.63S
MALMSTROM AFB  CLOUDY    44  35  69 SW12      29.63S
HELENA         CLOUDY    46  35  65 W7        29.70R
BOWMANS CRNR     N/A     40  32  75 SW14      29.64R
CHOTEAU          N/A     39  32  75 SW5       29.65R
FAIRFIELD      MOCLDY    40  31  70 W5        29.63R
POWER            N/A     35  31  87 SW8       29.63R WCI  28
RAYNESFORD     MOCLDY    47  30  53 SW15      29.63S
ULM            MOCLDY    41  34  74 SW6       29.65R
$$

MTZ011-013-016-021-045-047-050-051-191300-
NORTH CENTRAL MONTANA

CITY           SKY/WX    TMP DP  RH WIND       PRES   REMARKS
HAVRE          CLOUDY    48  39  71 SW10      29.58R
LEWISTOWN      CLOUDY    44  37  76 W7        29.62S
N BAR RANCH    LGT RAIN  43  37  81 W14G21    29.64R
CHINOOK          N/A     50  37  62 W13       29.56R
DENTON           N/A     46  36  67 W9        29.57F
GEYSER         CLOUDY    44  35  70 W12       29.62F
GRASS RANGE    CLOUDY    47  36  65 W10       29.58R
JUDITH GAP     MOCLDY    46  29  50 NW10      29.62S
WINIFRED       CLOUDY    44  38  77 SW3       29.60S
$$

MTZ017>020-022>027-061-062-191300-
NORTHEAST MONTANA

CITY           SKY/WX    TMP DP  RH WIND       PRES   REMARKS
GLASGOW        LGT RAIN  50  46  86 NW14      29.50F
JORDAN           N/A     52  48  86 W7        29.53R
SIDNEY         CLOUDY    57  48  72 CALM      29.44S
WOLF POINT     LGT RAIN  58  49  72 NW6       29.46R
MALTA          MOCLDY    48  43  81 W8        29.52F
PLENTYWOOD       N/A     59  45  58 CALM      29.45F
POPLAR           N/A     55  48  76 N3        29.46F
SCOBEY           N/A     51  43  74 SE3       29.51F
$$

MTZ028>42-056>058-191300-
SOUTHCENTRAL AND SOUTHEAST MONTANA

CITY           SKY/WX    TMP DP  RH WIND       PRES   REMARKS
BAKER          CLOUDY    57  43  59 W9        29.48S
BILLINGS       LGT RAIN  48  43  82 W18       29.62R
LIVINGSTON     LGT RAIN  42  38  85 W14       29.66F
MILES CITY     CLOUDY    55  48  77 NW7       29.52S
BIG TIMBER     CLOUDY    43  36  75 W14G20    29.68R
HARLOWTON      MOCLDY    45  35  68 MISG      29.64S
LAUREL           N/A     46  43  87 W18       29.64R
$$

REGIONAL REPORTS...DAKOTAS

CITY           SKY/WX    TMP DP  RH WIND       PRES   REMARKS
WILLISTON      CLOUDY    60  48  64 E3        29.43F
MINOT          LGT RAIN  55  50  83 E15       29.53F
DICKINSON      PTCLDY    58  51  78 SE9       29.44F
BEACH          MOCLDY    54  50  87 SW10      29.48S
CROSBY         MOCLDY    61  45  55 E14G20    29.48F
TIOGA          MOCLDY    59  48  67 SE14      29.48S
WATFORD CITY     N/A     57  50  77 SE6       29.43F
BISMARCK       PTCLDY    62  59  90 E14       29.55F
GRAND FORKS    CLOUDY    59  59 100 SE12      29.77F FOG
FARGO          CLOUDY    61  61 100 SE12      29.76F FOG
BUFFALO SD       N/A     59  43  55 W10       29.43F
RAPID CITY     CLEAR     57  46  67 SE7       29.56
$$

REGIONAL REPORTS...WYOMING/IDAHO/WASHINGTON

CITY           SKY/WX    TMP DP  RH WIND       PRES   REMARKS
GILLETTE       CLOUDY    51  44  77 CALM      29.60S
SHERIDAN       CLOUDY    54  44  69 NW6       29.58R
BUFFALO WY     CLOUDY    52  41  66 S12       29.61F
CODY           CLOUDY    46  42  86 CALM      29.65S
YELLOWSTONE LA   N/A     32  32 100 VRB3      29.75R
IDAHO FALLS    CLOUDY    43  41  93 SW22G32   29.79S
SALMON         CLOUDY    41  40  96 CALM      29.78R
BOISE          LGT RAIN  48  44  86 VRB3      29.85R
SPOKANE        CLOUDY    45  42  89 S10       29.70R
$$

REGIONAL REPORTS...ALBERTA

CITY           SKY/WX    TMP DP  RH WIND       PRES   REMARKS
EDMONTON       LGT RAIN  43  43 100 NW6       29.46R
CALGARY        PTCLDY    37  30  75 VRB2      29.56S
LETHBRIDGE     PTCLDY    36  30  80 W8        29.60S WCI  29
MEDICINE HAT   CLOUDY    43  39  87 SW9       29.54R
$$

REGIONAL REPORTS...SASKATCHEWAN

CITY           SKY/WX    TMP DP  RH WIND       PRES   REMARKS
SWIFT CURRENT  PTCLDY    46  43  87 W6        29.48F
REGINA         MOCLDY    57  46  67 SE15G24   29.51F
SASKATOON      LGT RAIN  54  50  87 E10       29.47F
$$




USA.gov is the U.S. government's official web portal to all federal, state and local government web resources and services.